Weather in Mahabaleshwar

India     17°55′34″N   73°39′33″E
temp.,
°C
wind,
m/s
gust,
m/s
humid.,
%
clouds,
%
prec.,
mm/h
press.,
hPa
HPBL,
m
13 may, thu
thu1323:30+22w3482100 0.0 1008225
02:30+21wsw2387100 0.0 1007189
05:30+20w2490100 0.0 1007162
08:30+24w2356100 0.0 1009448
11:30+30wnw3234100 0.0 10081205
14:30+31wnw3235100 0.0 10051491
17:30+30wnw4336100 0.0 10041004
20:30+25w236194 0.0 1006145
14 may, fri
fri1423:30+23wsw236899 0.0 1007123
02:30+22sw1170100 0.0 100561
05:30+22nw1167100 0.0 100523
08:30+28nne1145100 0.0 1006328
11:30+33e243372 0.0 10051996
14:30+32ene2335100 0.1 10022024
17:30+31nw2336100 0.1 10021207
20:30+25sw1265100 0.0 1004132
15 may, sat
sat1523:30+25wnw2265100 0.2 1004109
02:30+25nne2266100 0.6 100274
05:30+25ene2361100 0.6 100261
08:30+28ne51047100 0.1 10031010
11:30+31ene71140100 0.1 10021912
14:30+33e71134100 0.0 9992993
17:30+31ene41235100 0.0 9982105
20:30+29nne1243100 0.1 100055
16 may, sun
sun1623:30+24e41473100 2.1 10021095
02:30+23ene51278100 3.2 10001302
05:30+23ene51679100 8.3 9991343
08:30+23ene61679100 2.3 10011410
11:30+24e81973100 2.7 10001524
14:30+24ese91777100 2.9 9971514
17:30+23ese112085100 5.4 9961400
20:30+22se101985100 0.1 9991211
17 may, mon
mon1723:30+22se81788100 2.0 10001150
02:30+22se41290100 0.2 10001197
05:30+22sse3893100 1.8 1001595
08:30+23sse498391 1.4 1003852
11:30+22ssw2292100 4.3 1005263
14:30+26ssw496593 0.3 10031374
17:30+24sw367447 0.6 1004856
20:30+22sw238480 0.0 1005243